Regional Weather Roundup
Issued by NWS Upton, NY

Current Version | Previous Version | Text Only | Print | Product List | Glossary On
Versions: 1 2 3 4 5 6 7 8 9 10 11 12 13 14 15 16 17 18 19 20 21 22 23 24 25 26 27 28 29 30 31 32 33 34 35 36 37 38 39 40 41 42 43 44 45 46 47 48 49 50
000 ASUS41 KOKX 080208 RWROKX REGIONAL WEATHER ROUNDUP NATIONAL WEATHER SERVICE NEW YORK NY 900 PM EST WED DEC 07 2016 NOTE: "FAIR" INDICATES FEW OR NO CLOUDS BELOW 12,000 FEET WITH NO SIGNIFICANT WEATHER AND/OR OBSTRUCTIONS TO VISIBILITY. NYZ071-072-176-178-NJZ106-104-080300- NEW YORK CITY METRO AREA CITY SKY/WX TMP DP RH WIND PRES REMARKS Central Park CLOUDY 45 33 63 CALM 30.05F Wall St Helipt PTCLDY 46 35 65 W3 30.04F Bronx Bot Gard NOT AVBL LaGuardia APRT CLOUDY 47 35 63 W3 30.03S Kennedy INTL CLOUDY 46 32 58 NW5 30.04F Breezy Point N/A 45 N/A N/A W1 N/A Newark/Liberty CLOUDY 45 36 70 W3 30.03F Teterboro CLOUDY 42 34 73 CALM 30.03S $$ NYZ177-179-078>081-080300- LONG ISLAND NEW YORK CITY SKY/WX TMP DP RH WIND PRES REMARKS Jones Beach N/A 43 N/A N/A W2 N/A Matinecock PT N/A 45 N/A N/A W6 N/A Farmingdale CLOUDY 41 34 76 CALM 30.03S MacArthur/ISP CLOUDY 39 36 89 CALM 30.03S Shirley PTCLDY 38 37 97 CALM 30.03F Westhampton MOCLDY 39 36 89 CALM 30.04S Southampton NOT AVBL Bridgehampton NOT AVBL East Hampton CLOUDY 41 39 93 CALM 30.01F Montauk N/A 44 37 76 N7 30.03S $$ NYZ052-065-067-080300- HUDSON VALLEY CITY SKY/WX TMP DP RH WIND PRES REMARKS White Plains CLOUDY 38 34 85 CALM 30.01S Newburgh MOCLDY 34 34 100 CALM 30.02F Montgomery PTCLDY 30 29 96 CALM 30.00S FOG Poughkeepsie CLOUDY 31 30 96 CALM 30.00F Albany CLOUDY 34 33 96 CALM 30.01S $$ NJZ001-105-106-008-010-013-015-019>022-104-080300- NEW JERSEY CITY SKY/WX TMP DP RH WIND PRES REMARKS Newark/Liberty CLOUDY 45 36 70 W3 30.03F Teterboro CLOUDY 42 34 73 CALM 30.03S Caldwell CLOUDY 39 36 89 CALM 30.03F Somerville PTCLDY 35 33 92 CALM 30.02F Linden N/A 43 34 71 CALM 30.04S Sussex CLOUDY 32 32 100 CALM 30.02S Andover N/A 33 32 96 CALM 30.02S Trenton MOCLDY 37 33 85 CALM 30.04F Millville CLEAR 30 30 100 CALM 30.07S Atlantic City CLEAR 34 32 92 CALM 30.06F Wrightstown PTCLDY 33 32 95 CALM 30.02F Toms River CLEAR 32 31 96 W3 30.06F Belmar CLEAR 39 37 92 SW7 30.05F WCI 34 $$ PAZ047>061-062-071-080300- EASTERN PENNSYLVANIA CITY SKY/WX TMP DP RH WIND PRES REMARKS Philadelphia PTCLDY 40 30 67 CALM 30.06F Allentown CLOUDY 37 29 72 SW3 30.03F Scranton PTCLDY 38 29 70 SW3 30.00S $$ CTZ002-004>006-009-010-012-RIZ004-006-007-MAZ004-011-015-080300- SOUTHERN NEW ENGLAND IN CT CITY SKY/WX TMP DP RH WIND PRES REMARKS Bradley INTL MOCLDY 36 33 89 SW3 30.01F Hartford CLOUDY 36 36 100 CALM 30.02F Danbury CLOUDY 34 33 96 CALM 30.02F Wtrbury/Oxford PTCLDY 37 32 81 CALM 30.01F Bridgeport NOT AVBL Meriden CLOUDY 40 36 86 CALM 30.02F New Haven CLOUDY 42 36 79 CALM 30.02F Chester CLOUDY 41 37 87 CALM 30.01F Groton CLOUDY 45 39 79 NW5 30.01F Wilimantic PTCLDY 40 37 89 CALM 30.03R IN RI CITY SKY/WX TMP DP RH WIND PRES REMARKS Providence MOCLDY 42 34 73 W3 30.02R Block Island CLOUDY 43 37 79 N8 30.02S Westerly CLOUDY 43 35 73 N6 30.02F IN MA CITY SKY/WX TMP DP RH WIND PRES REMARKS Boston NOT AVBL Worcester CLOUDY 35 32 88 W16 29.97S WCI 25 Westfield FOG 31 31 100 CALM 30.00F VSB 1/2 Provincetown CLOUDY 43 38 82 W7 30.01S Nantucket MOCLDY 41 38 89 CALM 30.01R $$ ANZ330-335-338-340-345-350-353-355-080300- COASTAL MARINE OBSERVATIONS STATION/POSITION TIME SKY/WX TEMP WIND PRES VSBY WAVE AIR SEA DIR/SP/G HT/PER (UTC) (F) (DEG/KT/KT) (MB) (MI) (FT/S) NY HARB ENTRANCE 0050 47 52 280/ 12/ 14 1017.1 5/ 8 20 S FIRE ISLAND 0050 47 53 340/ 8/ 12 1017.2 6/ 9 GREAT SOUTH BAY 0115 42 43 N/A 23 SSW MONTAUK P 0150 46 54 290/ 6/ 10 1017.0 5/10 15 E BARNEGAT LI 0130 54 N/A 6/ 8 HUDSON CANYON 0050 50 56 1016.7 7/ 8 KINGS POINT 0148 45 48 1016.8 EXECUTION ROCKS 0145 45 270/ 4/ 6 N/A CENTRAL LI SOUND NOT AVBL EASTERN LI SOUND NOT AVBL ROBBINS REEF 0148 45 280/ 1/ 2 1017.2 $$ >>>>>>>>>>>>>>>>>>>>>>>>>>>> KEY <<<<<<<<<<<<<<<<<<<<<<<<<<< > < > SKY/WX - Sky Condition/Present Weather < > TMP - Temperature in Fahrenheit < > DP - Dew Point in Fahrenheit < > RH - Relative Humidity in Percent < > WIND - Direction (from) and Speed in MPH < > PRES - Mean Sea Level Pressure (inches of Hg) < > WCI - Wind Chill Index < > VSB - VISIBILITY IN MILES < > HX - HEAT INDEX < > TC - TEMPERATURE IN CELSIUS < > VRB - VARIABLE WIND DIRECTION < > < >>>>>>>>>>>>>>>>>>>>>>>>>>>> KEY <<<<<<<<<<<<<<<<<<<<<<<<<<<

USA.gov is the U.S. government's official web portal to all federal, state and local government web resources and services.